Flight Track Log - Related Links

Times and Time Zones

All times are in EST time to prevent confusion due to time zone crossing. See the PDT4314 flight status page for this flight to view local times or setup timezone preferences in your user account.

Time Position Orientation Groundspeed Altitude Reporting Facility
EST Latitude Longitude Course Direction KTS MPH feet Rate Location/Type
Mon 07:03:39 PM 39.9000 -75.2333 270° West 108 124 700  Level Philadelphia TRACON
Mon 07:04:03 PM 39.9000 -75.2500 270° West 100 115 1,400 1,357 Climbing Philadelphia TRACON
Mon 07:05:03 PM 39.9167 -75.2833 303° West 123 142 2,600 1,100 Climbing Philadelphia TRACON
Mon 07:06:03 PM 39.9167 -75.3333 270° West 132 152 3,600 1,031 Climbing Philadelphia TRACON
Mon 07:08:15 PM 39.9242 -75.4461 275° West 145 167 5,900 1,021 Climbing New York Center
Mon 07:09:17 PM 39.9628 -75.4317 16° North 146 168 6,900 960 Climbing New York Center
Mon 07:10:20 PM 40.0067 -75.4114 19° North 152 175 7,900 912 Climbing New York Center
Mon 07:11:22 PM 40.0400 -75.3639 47° Northeast 180 207 8,800 532 Climbing New York Center
Mon 07:12:24 PM 40.0769 -75.4011 322° Northwest 158 182 9,000 97 Climbing New York Center
Mon 07:13:26 PM 40.1100 -75.4528 310° West 181 208 9,000  Level New York Center
Mon 07:14:28 PM 40.1578 -75.5019 322° Northwest 202 232 9,000 823 Level New York Center
Mon 07:15:30 PM 40.1972 -75.5372 326° Northwest 163 188 10,700 1,306 Climbing New York Center
Mon 07:16:32 PM 40.2294 -75.5633 328° Northwest 147 169 11,700 624 Climbing New York Center
Mon 07:17:35 PM 40.2614 -75.6075 313° West 147 169 12,000 144 Climbing New York Center
Mon 07:18:37 PM 40.2919 -75.6597 308° West 173 199 12,000  Level New York Center
Mon 07:19:39 PM 40.3247 -75.7156 308° West 181 208 12,000  Level New York Center
Mon 07:20:41 PM 40.3583 -75.7731 308° West 186 214 12,000 581 Level New York Center
Mon 07:21:43 PM 40.3950 -75.8206 315° West 167 192 13,200 968 Climbing New York Center
Mon 07:22:45 PM 40.4267 -75.8578 318° Northwest 161 185 14,000 387 Climbing New York Center
Mon 07:23:47 PM 40.4583 -75.9089 309° West 166 191 14,000  Level New York Center
Mon 07:24:49 PM 40.4878 -75.9667 304° West 182 209 14,000  Level New York Center
Mon 07:25:51 PM 40.5194 -76.0244 306° West 185 213 14,000  Level New York Center
Mon 07:26:53 PM 40.5492 -76.0786 306° West 188 216 14,000  Level New York Center
Mon 07:27:55 PM 40.5886 -76.1342 313° West 197 227 14,000  Level New York Center
Mon 07:28:57 PM 40.6281 -76.1886 314° West 197 227 14,000  Level New York Center
Mon 07:30:00 PM 40.6631 -76.2467 308° West 196 226 14,000 -32 Level New York Center
Mon 07:32:04 PM 40.7964 -76.2364 North 243 280 13,900 -97 Descending New York Center
Mon 07:34:08 PM 40.9256 -76.2369 360° North 229 264 13,600 -290 Descending New York Center
Mon 07:35:10 PM 41.0003 -76.2283 North 253 291 13,000 -290 Descending New York Center
Mon 07:36:12 PM 41.0708 -76.2217 North 243 280 13,000  Level New York Center
Mon 07:37:14 PM 41.1383 -76.2158 North 233 268 13,000  Level New York Center
Mon 07:38:16 PM 41.2050 -76.2072 North 233 268 13,000  Level New York Center
Mon 07:39:18 PM 41.2664 -76.2044 North 231 266 13,000  Level New York Center
Mon 07:40:20 PM 41.3322 -76.2033 North 228 262 13,000  Level New York Center
Mon 07:41:22 PM 41.3975 -76.1942 North 226 260 13,000 -65 Level New York Center
Mon 07:43:26 PM 41.5269 -76.1869 North 225 259 12,800 -290 Descending New York Center
Mon 07:44:28 PM 41.5953 -76.1847 North 232 267 12,100 -677 Descending New York Center
Mon 07:45:30 PM 41.6594 -76.1781 North 237 273 11,400 -726 Descending New York Center
Mon 07:46:32 PM 41.7272 -76.1747 North 236 272 10,600 -774 Descending New York Center
Mon 07:47:34 PM 41.7958 -76.1750 360° North 235 270 9,800 -919 Descending New York Center
Mon 07:48:36 PM 41.8644 -76.1647 North 236 272 8,700 -1,452 Descending New York Center
Mon 07:49:38 PM 41.9272 -76.1267 24° Northeast 239 275 6,800 -1,839 Descending New York Center
Mon 07:50:40 PM 41.9886 -76.1006 18° North 223 257 4,900 -1,355 Descending New York Center
Mon 07:51:42 PM 42.0419 -76.0761 19° North 214 246 4,000 -548 Descending New York Center
Mon 07:53:46 PM 42.1378 -75.9756 North 215 247 3,200 -452 Descending New York Center
Mon 07:54:48 PM 42.1636 -75.9503 36° Northeast 176 203 2,600 -532 Descending New York Center
Mon 07:55:50 PM 42.1983 -75.9647 343° North 148 170 2,100 -484 Descending New York Center

Login

Don't have an account? Register now (free) for customized features, flight alerts, and more!